Humidity-temperature Sensor

Selected Measurement Type: Relative Humidity

 
Relative Humidity [%]     6 entries per hour
Showing data from 11/10/2021 (00:00:00 Z) to 11/7/2021 (00:01:00 Z)
Previous Next [ Day | 3-Days | 7-Days ]
First Last
Prev [ Day | 3-Days | 7-Days ] Next
First Last

Start Time:     :
End Time:     :     
Time (in GMT) :00 :50 :40 :30 :20 :10
Previous Next [ Day | 3-Days | 7-Days ]
First Last
Prev [ Day | 3-Days | 7-Days ] Next
First Last


123 => good data
MM => data is determined as missing
-- => data not received/configured
Back to Top Back to Top
11/10/2021 00:00 to 23:10 80.48 80.81 81.31 84.41 84.82 84.32
11/9/2021 23:00 to 22:10 83.20 83.22 82.39 82.31 82.56 82.37
11/9/2021 22:00 to 21:10 81.23 79.98 78.40 77.61 78.51 77.42
11/9/2021 21:00 to 20:10 76.07 74.95 73.52 74.35 74.70 76.16
11/9/2021 20:00 to 19:10 76.66 76.41 76.07 77.22 76.74 77.72
11/9/2021 19:00 to 18:10 77.84 77.63 77.82 78.75 81.37 81.37
11/9/2021 18:00 to 17:10 80.73 82.45 82.64 82.81 83.45 85.11
11/9/2021 17:00 to 16:10 85.36 83.37 75.64 75.78 73.77 74.97
11/9/2021 16:00 to 15:10 74.35 77.05 83.62 82.83 82.14 83.95
11/9/2021 15:00 to 14:10 86.84 85.84 86.76 87.63 88.23 87.48
11/9/2021 14:00 to 13:10 87.61 87.36 88.56 90.66 90.19 87.50
11/9/2021 13:00 to 12:10 81.56 85.11 90.58 90.50 90.77 92.14
11/9/2021 12:00 to 11:10 92.43 90.39 88.54 88.36 88.32 89.67
11/9/2021 11:00 to 10:10 91.45 92.14 92.16 92.83 94.45 94.74
11/9/2021 10:00 to 9:10 93.93 92.83 91.83 91.83 91.58 90.37
11/9/2021 09:00 to 8:10 89.06 90.25 91.66 92.99 91.08 89.50
11/9/2021 08:00 to 7:10 85.68 85.51 86.74 86.94 87.73 87.96
11/9/2021 07:00 to 6:10 87.82 86.84 86.71 87.28 86.32 88.17
11/9/2021 06:00 to 5:10 88.61 88.67 89.65 89.56 89.23 89.08
11/9/2021 05:00 to 4:10 90.68 90.56 90.56 89.79 87.57 86.59
11/9/2021 04:00 to 3:10 85.92 84.64 82.66 79.48 77.01 76.59
11/9/2021 03:00 to 2:10 77.59 77.03 82.85 84.16 83.58 84.95
11/9/2021 02:00 to 1:10 87.90 88.63 88.42 88.77 87.69 86.98
11/9/2021 01:00 to 0:10 87.07 87.59 88.42 88.83 85.49 83.76
11/9/2021 00:00 to 23:10 82.87 82.41 82.33 83.97 83.66 83.60
11/8/2021 23:00 to 22:10 83.87 85.72 87.26 87.32 86.90 86.53
11/8/2021 22:00 to 21:10 87.98 88.63 88.36 87.80 88.73 88.96
11/8/2021 21:00 to 20:10 86.49 86.74 87.57 87.36 87.53 87.03
11/8/2021 20:00 to 19:10 86.69 87.44 88.29 89.38 88.77 86.84
11/8/2021 19:00 to 18:10 86.28 85.99 84.43 84.41 83.95 84.74
11/8/2021 18:00 to 17:10 84.82 86.01 86.03 84.99 84.95 85.74
11/8/2021 17:00 to 16:10 86.15 85.78 86.32 87.40 87.80 87.80
11/8/2021 16:00 to 15:10 88.07 88.04 88.67 89.23 88.02 85.57
11/8/2021 15:00 to 14:10 85.26 83.78 84.80 83.87 83.12 84.64
11/8/2021 14:00 to 13:10 84.39 84.78 86.76 87.55 87.36 86.98
11/8/2021 13:00 to 12:10 87.73 87.69 87.03 87.13 88.02 88.56
11/8/2021 12:00 to 11:10 87.59 87.21 87.28 87.11 87.59 87.15
11/8/2021 11:00 to 10:10 87.36 87.77 88.54 88.73 89.17 89.98
11/8/2021 10:00 to 9:10 89.35 88.27 87.38 87.48 87.03 86.76
11/8/2021 09:00 to 8:10 86.51 86.36 87.38 87.84 88.32 88.15
11/8/2021 08:00 to 7:10 87.59 87.63 87.90 87.86 87.88 87.55
11/8/2021 07:00 to 6:10 86.76 87.07 86.82 87.57 86.98 86.82
11/8/2021 06:00 to 5:10 86.32 86.13 87.09 87.44 86.55 86.26
11/8/2021 05:00 to 4:10 85.80 85.88 86.78 85.32 84.55 83.95
11/8/2021 04:00 to 3:10 83.97 84.32 83.70 84.78 85.92 86.26
11/8/2021 03:00 to 2:10 85.45 84.70 83.83 82.95 84.80 84.68
11/8/2021 02:00 to 1:10 85.14 85.99 85.28 84.45 83.99 84.28
11/8/2021 01:00 to 0:10 85.05 85.74 86.07 86.51 89.00 89.44
11/8/2021 00:00 to 23:10 87.77 87.23 89.56 89.73 90.75 88.92
11/7/2021 23:00 to 22:10 87.23 87.19 87.90 87.75 85.14 84.57
11/7/2021 22:00 to 21:10 83.95 84.08 85.38 85.22 84.74 83.97
11/7/2021 21:00 to 20:10 83.35 84.64 85.74 86.96 87.61 87.19
11/7/2021 20:00 to 19:10 88.11 87.75 87.71 86.84 88.42 89.73
11/7/2021 19:00 to 18:10 89.94 89.79 89.38 88.54 88.09 88.00
11/7/2021 18:00 to 17:10 87.19 86.80 86.59 83.89 86.96 89.19
11/7/2021 17:00 to 16:10 91.06 91.56 91.49 90.71 89.29 88.90
11/7/2021 16:00 to 15:10 87.65 85.55 86.94 87.28 86.38 85.84
11/7/2021 15:00 to 14:10 85.16 85.01 84.64 84.66 84.22 83.35
11/7/2021 14:00 to 13:10 83.24 85.24 85.51 85.24 84.74 84.68
11/7/2021 13:00 to 12:10 85.01 85.05 84.47 82.89 82.06 82.00
11/7/2021 12:00 to 11:10 81.71 83.35 83.97 85.09 85.55 85.59
11/7/2021 11:00 to 10:10 87.05 86.55 86.76 86.49 86.57 87.23
11/7/2021 10:00 to 9:10 87.23 86.32 85.90 86.40 87.01 87.11
11/7/2021 09:00 to 8:10 86.11 85.88 85.92 86.28 87.34 87.65
11/7/2021 08:00 to 7:10 86.88 86.69 85.82 86.01 87.53 87.26
11/7/2021 07:00 to 6:10 86.32 85.86 85.61 85.59 84.80 84.14
11/7/2021 06:00 to 5:10 84.66 85.41 85.09 85.01 84.41 85.68
11/7/2021 05:00 to 4:10 86.22 84.76 84.20 84.80 83.89 83.95
11/7/2021 04:00 to 3:10 85.07 85.51 86.30 85.97 86.61 87.53
11/7/2021 03:00 to 2:10 86.53 84.57 84.53 84.45 83.43 83.68
11/7/2021 02:00 to 1:10 84.43 84.47 83.39 81.81 81.62 82.50
11/7/2021 01:00 to 0:10 82.39 82.08 82.16 82.31 82.25 82.35